Simultaneous Nadir Overpasses (SNOs) Predictions

Prediction of SNOs between LANDSAT-8 and METOP-B Satellite Orbit:

Table of predicted SNOs for the next 14.0 days since TLE Epoch: 9/21/2014
Index Date (LANDSAT-8) Time (LANDSAT-8) Lat,Lon (LANDSAT-8) SZA (LANDSAT-8 ) Date (METOP-B) Time (METOP-B) Lat,Lon (METOP-B) SZA (METOP-B ) Distance(km) Time Diff (sec)
1 09/22/2014 01:39:11 -81.20, 16.32 96.88 09/22/2014 01:39:01 -81.19, 16.36 96.88 0.62 10
2 09/22/2014 02:28:37 81.20,-175.96 83.15 09/22/2014 02:29:41 81.20,-176.02 83.18 1.07 64
3 09/24/2014 21:13:25 -81.19, 82.65 95.78 09/24/2014 21:13:21 -81.20, 82.82 95.76 2.92 4
4 09/24/2014 22:02:50 81.22,-109.28 84.30 09/24/2014 22:04:00 81.22,-109.16 84.35 2.05 70
5 09/27/2014 15:58:12 81.18, -18.77 85.29 09/27/2014 15:57:02 81.18, -18.74 85.27 0.49 70
6
